Hourly Data Report for October 18, 2014

All times are specified in Local Standard Time (LST). Add 1 hour to adjust for Daylight Saving Time where and when it is observed.

POND INLET A
NUNAVUT

72°41'22.000" N
77°58'08.000" W
61.60 m
2403206
71095
YIO

Download Data

Hourly Data (October 2014)
Hourly Data Report for October 18, 2014
Temp Definition
°C
Dew Point Temp Definition
°C
Rel Hum Definition
%
Wind Dir Definition
10's deg

Wind Spd Definition
km/h
Visibility Definition
km
Stn Press Definition
kPa
Hmdx Definition


Wind Chill Definition


Weather Definition


TIME
00:00 Legend Double Dagger -8.6 -11.8 78 15 21 16.1 101.12   -16 LegendNANA
01:00 Legend Double Dagger -8.5 -11.5 79 15 21 16.1 101.10   -16 LegendNANA
02:00 Legend Double Dagger -7.7 -10.9 78 14 21 16.1 101.05   -15 LegendNANA
03:00 Legend Double Dagger -7.4 -10.3 80 16 18 16.1 101.03   -14 Snow
04:00 Legend Double Dagger -7.6 -10.8 78 16 24 16.1 101.00   -16 Snow
05:00 Legend Double Dagger -7.3 -10.2 80 15 24 16.1 100.96   -15 Snow
06:00 Legend Double Dagger -7.3 -9.7 83 16 17 16.1 100.92   -14 LegendNANA
07:00 Legend Double Dagger -7.1 -9.6 82 16 17 16.1 100.89   -14 Snow
08:00 Legend Double Dagger -7.4 -9.6 84 15 17 14.5 100.86   -14 Snow
09:00 Legend Double Dagger -7.1 -9.4 84 14 11 16.1 100.83   -12 Snow
10:00 Legend Double Dagger -7.2 -9.3 85 20 11 11.3 100.81   -12 Snow
11:00 Legend Double Dagger -6.5 -9.4 80 27 17 16.1 100.78   -13 Snow
12:00 Legend Double Dagger -6.6 -10.2 76 28 15 16.1 100.75   -13 Snow
13:00 Legend Double Dagger -6.9 -10.2 78 28 13 16.1 100.74   -12 Snow
14:00 Legend Double Dagger -7.1 -9.4 84 24 11 9.7 100.74   -12 Snow
15:00 Legend Double Dagger -7.6 -9.0 90 17 13 4.8 100.72   -13 Snow
16:00 Legend Double Dagger -8.3 -9.5 91 15 13 2.0 100.71   -14 Snow
17:00 Legend Double Dagger -8.5 -10.0 89 14 17 4.8 100.68   -15 Snow
18:00 Legend Double Dagger -8.2 -9.6 90 17 13 2.4 100.67   -14 Snow
19:00 Legend Double Dagger -8.4 -9.8 90 16 17 4.8 100.65   -15 Snow
20:00 Legend Double Dagger -8.6 -10.4 87 15 17 16.1 100.64   -15 Snow
21:00 Legend Double Dagger -8.8 -10.4 88 16 17 16.1 100.62   -16 Snow
22:00 Legend Double Dagger -8.6 -10.0 90 15 17 2.0 100.59   -15 Snow
23:00 Legend Double Dagger -9.1 -10.6 89 15 15 8.1 100.57   -16 Snow

Notes on Data Quality.

Legend

  • E = Estimated
  • M = Missing
  • NA = Not Available
  • ‡ = Partner data that is not subject to review by the National Climate Archives
Date modified: